DELTA 1 R/B

Last updated on Sat Aug 15 2026 00:02:07 GMT+0000 (Coordinated Universal Time)

1 20323U 89089B 26226.50030990 .00000106 00000+0 34971-4 0 9992 2 20323 97.0648 48.7317 0068654 345.1541 14.7640 14.50761598918611
UTC large
Height (km)
Speed (km/s)
/
Latitude / Longitude
Inclination (degrees)
Orbital Period (minutes)
Azimuth
Elevation
Range (km)
Doppler Factor

Next 0 passes for location: London (51.5072 / 0.1276)

No passes found over London.
DELTA 1 R/B